When you browse on this site, cookies collect data to enhance your experience and personalize the content and advertising you see.
Visit our Privacy Policy to learn more. By continuing to use the site, you agree to this use of cookies and data.
  • In Austria
  • List of Countries
  • For 7 days
  • Water Temperature
  • Weather Map
  • News
  • Weather Widgets
  • user-avatar
    Login

    Hourly Weather Cottbus

    Today, 31 May, Sunday

    Time Temperature Precipitation Wind Pressure Humidity
    00:00 +9°C° 0 mm 3 mps 759 mmHg 82%
    01:00 +9°C° 0 mm 3 mps 759 mmHg 78%
    02:00 +9°C° 0 mm 3 mps 759 mmHg 81%
    03:00 +8°C° 0 mm 3 mps 758 mmHg 83%
    04:00 +8°C° 0 mm 3 mps 758 mmHg 85%
    05:00 +9°C° 0 mm 3 mps 758 mmHg 82%
    06:00 +10°C° 0 mm 3 mps 759 mmHg 79%
    07:00 +11°C° 0 mm 3 mps 759 mmHg 75%
    08:00 +11°C° 0 mm 3 mps 759 mmHg 76%
    09:00 +12°C° 0 mm 4 mps 759 mmHg 77%
    10:00 +12°C° 0 mm 4 mps 759 mmHg 77%
    11:00 +14°C° 0 mm 4 mps 758 mmHg 71%
    12:00 +17°C° 0 mm 4 mps 758 mmHg 64%
    13:00 +19°C° 0 mm 4 mps 758 mmHg 57%
    14:00 +20°C° 0 mm 4 mps 758 mmHg 55%
    15:00 +21°C° 0 mm 4 mps 758 mmHg 53%
    16:00 +22°C° 0 mm 4 mps 758 mmHg 51%
    17:00 +21°C° 0 mm 4 mps 758 mmHg 55%
    18:00 +20°C° 0 mm 4 mps 758 mmHg 59%
    19:00 +18°C° 0 mm 4 mps 758 mmHg 62%
    20:00 +17°C° 0 mm 3 mps 759 mmHg 68%
    21:00 +14°C° 0 mm 3 mps 759 mmHg 73%
    22:00 +13°C° 0 mm 2 mps 760 mmHg 78%
    23:00 +12°C° 0 mm 2 mps 760 mmHg 81%

    Tomorrow, 1 June, Monday

    Time Temperature Precipitation Wind Pressure Humidity
    00:00 +10°C° 0 mm 2 mps 760 mmHg 84%
    01:00 +10°C° 0 mm 2 mps 761 mmHg 86%
    02:00 +9°C° 0 mm 2 mps 761 mmHg 88%
    03:00 +8°C° 0 mm 2 mps 761 mmHg 90%
    04:00 +8°C° 0 mm 2 mps 760 mmHg 92%
    05:00 +10°C° 0 mm 2 mps 761 mmHg 84%
    06:00 +12°C° 0 mm 2 mps 761 mmHg 77%
    07:00 +14°C° 0 mm 2 mps 761 mmHg 69%
    08:00 +16°C° 0 mm 2 mps 761 mmHg 63%
    09:00 +18°C° 0 mm 3 mps 761 mmHg 57%
    10:00 +20°C° 0 mm 3 mps 761 mmHg 50%
    11:00 +21°C° 0 mm 3 mps 761 mmHg 47%
    12:00 +21°C° 0 mm 4 mps 761 mmHg 44%
    13:00 +22°C° 0 mm 4 mps 761 mmHg 40%
    14:00 +22°C° 0 mm 4 mps 761 mmHg 40%
    15:00 +22°C° 0 mm 4 mps 760 mmHg 40%
    16:00 +22°C° 0 mm 4 mps 760 mmHg 40%
    17:00 +21°C° 0 mm 4 mps 760 mmHg 47%
    18:00 +20°C° 0 mm 3 mps 760 mmHg 53%
    19:00 +19°C° 0 mm 3 mps 760 mmHg 59%
    20:00 +17°C° 0 mm 2 mps 760 mmHg 65%
    21:00 +15°C° 0 mm 2 mps 760 mmHg 71%
    22:00 +13°C° 0 mm 2 mps 760 mmHg 77%
    23:00 +12°C° 0 mm 2 mps 760 mmHg 80%

    Day after tomorrow, 2 June, Tuesday

    Time Temperature Precipitation Wind Pressure Humidity
    00:00 +12°C° 0 mm 2 mps 760 mmHg 83%
    01:00 +10°C° 0 mm 2 mps 760 mmHg 86%
    02:00 +9°C° 0 mm 2 mps 760 mmHg 88%
    03:00 +9°C° 0 mm 2 mps 759 mmHg 90%
    04:00 +8°C° 0 mm 2 mps 759 mmHg 91%
    05:00 +10°C° 0 mm 2 mps 759 mmHg 84%
    06:00 +13°C° 0 mm 2 mps 759 mmHg 77%
    07:00 +15°C° 0 mm 2 mps 759 mmHg 69%
    08:00 +16°C° 0 mm 3 mps 759 mmHg 62%
    09:00 +18°C° 0 mm 3 mps 759 mmHg 56%
    10:00 +20°C° 0 mm 4 mps 758 mmHg 49%
    11:00 +21°C° 0 mm 3 mps 758 mmHg 46%
    12:00 +22°C° 0 mm 3 mps 757 mmHg 44%
    13:00 +24°C° 0 mm 3 mps 757 mmHg 41%
    14:00 +24°C° 0 mm 3 mps 757 mmHg 45%
    15:00 +22°C° 0 mm 3 mps 756 mmHg 49%
    16:00 +21°C° 0 mm 3 mps 756 mmHg 53%
    17:00 +20°C° 0.3 mm 2 mps 755 mmHg 61%
    18:00 +19°C° 0.3 mm 2 mps 755 mmHg 69%
    19:00 +18°C° 0.3 mm 2 mps 754 mmHg 77%
    20:00 +17°C° 0.5 mm 2 mps 754 mmHg 82%
    21:00 +15°C° 0.5 mm 2 mps 754 mmHg 87%
    22:00 +14°C° 0.5 mm 2 mps 754 mmHg 92%
    23:00 +14°C° 0 mm 2 mps 753 mmHg 93%

    3 June, Wednesday

    Time Temperature Precipitation Wind Pressure Humidity
    00:00 +13°C° 0 mm 2 mps 753 mmHg 93%
    01:00 +13°C° 0 mm 2 mps 752 mmHg 94%
    02:00 +13°C° 0 mm 2 mps 752 mmHg 94%
    03:00 +12°C° 0 mm 2 mps 752 mmHg 95%
    04:00 +12°C° 0 mm 2 mps 751 mmHg 95%
    05:00 +13°C° 0 mm 2 mps 751 mmHg 91%
    06:00 +15°C° 0 mm 2 mps 751 mmHg 88%
    07:00 +16°C° 0 mm 2 mps 751 mmHg 84%
    08:00 +18°C° 0 mm 3 mps 751 mmHg 74%
    09:00 +19°C° 0 mm 3 mps 751 mmHg 65%
    10:00 +21°C° 0 mm 3 mps 750 mmHg 55%
    11:00 +21°C° 0.1 mm 3 mps 750 mmHg 53%
    12:00 +22°C° 0.1 mm 3 mps 750 mmHg 51%
    13:00 +24°C° 0.1 mm 3 mps 749 mmHg 48%
    14:00 +24°C° 0.1 mm 3 mps 749 mmHg 48%
    15:00 +24°C° 0.1 mm 3 mps 749 mmHg 48%
    16:00 +24°C° 0.1 mm 2 mps 748 mmHg 48%
    17:00 +23°C° 0.2 mm 2 mps 748 mmHg 56%
    18:00 +21°C° 0.2 mm 2 mps 748 mmHg 63%
    19:00 +20°C° 0.2 mm 1 mps 747 mmHg 71%
    20:00 +19°C° 0 mm 1 mps 748 mmHg 76%
    21:00 +16°C° 0 mm 1 mps 748 mmHg 80%
    22:00 +15°C° 0 mm 1 mps 748 mmHg 85%
    23:00 +14°C° 0 mm 1 mps 747 mmHg 86%

    4 June, Thursday

    Time Temperature Precipitation Wind Pressure Humidity
    00:00 +14°C° 0 mm 1 mps 747 mmHg 86%
    01:00 +14°C° 0 mm 1 mps 747 mmHg 86%
    02:00 +14°C° 0 mm 1 mps 746 mmHg 87%
    03:00 +14°C° 0 mm 1 mps 746 mmHg 88%
    04:00 +13°C° 0 mm 1 mps 746 mmHg 88%
    05:00 +15°C° 0 mm 1 mps 746 mmHg 84%
    06:00 +16°C° 0 mm 2 mps 745 mmHg 79%
    07:00 +18°C° 0 mm 2 mps 745 mmHg 75%
    08:00 +20°C° 0.1 mm 2 mps 745 mmHg 67%
    09:00 +22°C° 0.1 mm 3 mps 744 mmHg 59%
    10:00 +25°C° 0.1 mm 3 mps 744 mmHg 52%
    11:00 +25°C° 0.3 mm 4 mps 743 mmHg 50%
    12:00 +25°C° 0.3 mm 5 mps 743 mmHg 49%
    13:00 +24°C° 0.3 mm 6 mps 742 mmHg 48%
    14:00 +22°C° 1.2 mm 5 mps 742 mmHg 63%
    15:00 +19°C° 1.2 mm 4 mps 742 mmHg 78%
    16:00 +16°C° 1.2 mm 3 mps 741 mmHg 92%
    17:00 +15°C° 0.4 mm 4 mps 742 mmHg 92%
    18:00 +15°C° 0.4 mm 4 mps 742 mmHg 91%
    19:00 +14°C° 0.4 mm 4 mps 742 mmHg 90%
    20:00 +14°C° 0.1 mm 4 mps 742 mmHg 90%
    21:00 +13°C° 0.1 mm 5 mps 743 mmHg 91%
    22:00 +12°C° 0.1 mm 5 mps 744 mmHg 91%
    23:00 +12°C° 0 mm 5 mps 744 mmHg 90%

    5 June, Friday

    Time Temperature Precipitation Wind Pressure Humidity
    00:00 +10°C° 0 mm 6 mps 745 mmHg 90%
    01:00 +10°C° 0 mm 6 mps 745 mmHg 89%
    02:00 +9°C° 0 mm 5 mps 746 mmHg 86%
    03:00 +9°C° 0 mm 5 mps 746 mmHg 83%
    04:00 +8°C° 0 mm 5 mps 746 mmHg 80%
    05:00 +8°C° 0 mm 5 mps 747 mmHg 76%
    06:00 +9°C° 0 mm 5 mps 747 mmHg 73%
    07:00 +9°C° 0 mm 6 mps 748 mmHg 69%
    08:00 +11°C° 0 mm 6 mps 748 mmHg 63%
    09:00 +13°C° 0 mm 6 mps 748 mmHg 58%
    10:00 +14°C° 0 mm 6 mps 748 mmHg 52%
    11:00 +15°C° 0 mm 6 mps 748 mmHg 52%
    12:00 +16°C° 0 mm 5 mps 748 mmHg 52%
    13:00 +17°C° 0 mm 5 mps 748 mmHg 51%
    14:00 +17°C° 0 mm 5 mps 748 mmHg 51%
    15:00 +18°C° 0 mm 4 mps 748 mmHg 50%
    16:00 +19°C° 0 mm 4 mps 748 mmHg 50%
    17:00 +18°C° 0 mm 3 mps 748 mmHg 54%
    18:00 +17°C° 0 mm 2 mps 748 mmHg 59%
    19:00 +16°C° 0 mm 1 mps 748 mmHg 63%
    20:00 +15°C° 0 mm 1 mps 748 mmHg 66%
    21:00 +14°C° 0 mm 1 mps 748 mmHg 69%
    22:00 +12°C° 0 mm 2 mps 748 mmHg 72%
    23:00 +12°C° 0 mm 2 mps 748 mmHg 73%
    Show more